Regional Weather Roundup
Issued by NWS Midland/Odessa, TX

Home | Current Version | Previous Version | Text Only | Print | Product List | Glossary On
Versions: 1 2 3 4 5 6 7 8 9 10 11 12 13 14 15 16 17 18 19 20 21 22 23 24 25 26 27 28 29 30 31 32 33 34 35 36 37 38 39 40 41 42 43 44 45 46 47 48 49 50
000
ASUS44 KMAF 021510
RWRMAF
MIDLAND AREA WEATHER ROUNDUP
NATIONAL WEATHER SERVICE MIDLAND TX
1000 AM CDT MON MAY 02 2016

...IN SOUTHWEST TEXAS AND SOUTHEAST NEW MEXICO...

CITY           SKY/WX    TMP DP  RH WIND       PRES   REMARKS
ALPINE         CLOUDY    44  35  72 N12       30.35R WCI  38
ANDREWS        FAIR      51  35  55 N15       30.29R
ARTESIA        MOSUNNY   48  34  57 N16       30.32F
BIG SPRING     MOSUNNY   50  37  61 N14       30.29R
CARLSBAD       CLOUDY    49  35  58 N12       30.31S
DRYDEN           N/A     56  42  59 N16G23    30.24R
FORT STOCKTON  CLOUDY    51  37  58 N12       30.30R
GUAD PASS      MOSUNNY   43  32  65 NE24      30.28R WCI  33
HOBBS          PTSUNNY   48  36  61 N15       30.31S
MARFA          CLOUDY    44  35  70 N16       30.29R WCI  37
MIDLAND AIRPK  SUNNY     54  39  57 N8        30.28S
MIDLAND INTL   CLOUDY    53  39  59 N13       30.28R
ODESSA         MOSUNNY   52  38  58 N16       30.29R
PECOS          CLOUDY    51  36  57 N5        30.32R
PRESIDIO       CLOUDY    56  39  53 MISG      30.24R
SEMINOLE       MOSUNNY   49  35  58 NE9G16    30.31R
SNYDER           N/A     51  39  64 N17G23    30.26S
WINK           CLOUDY    50  36  58 VRB7      30.29R
$$
...OTHER STATIONS IN TEXAS...

CITY           SKY/WX    TMP DP  RH WIND       PRES   REMARKS
ABILENE        PTSUNNY   51  46  83 N14       30.23R
AMARILLO       SUNNY     47  36  65 NW12      30.28R
AUSTIN         CLOUDY    62  53  72 N17G23    30.10R
BROWNSVILLE    CLOUDY    81  75  82 NW3       29.92R
CORPUS CHRISTI PTSUNNY   73  61  65 N22       29.96R
DALLAS FTW     CLOUDY    56  50  80 N16       30.14S
DEL RIO        CLOUDY    59  49  69 N12       30.19R
EL PASO        MOSUNNY   51  33  50 VRB5      30.26R
HOUSTON INT    LGT RAIN  62  59  90 N15       30.01R
LUBBOCK        MOSUNNY   51  37  58 N15       30.27S
SAN ANGELO     CLOUDY    50  44  80 N9        30.25R
SAN ANTONIO    CLOUDY    63  50  62 N22G30    30.09R
WACO           CLOUDY    56  52  86 N16G25    30.13S
WICHITA FALLS  NOT AVBL
$$
...OTHER LOCATIONS IN NEW MEXICO...

CITY           SKY/WX    TMP DP  RH WIND       PRES   REMARKS
ALAMAGORDO     SUNNY     48  32  53 S6        30.29R
ALBUQUERQUE    MOSUNNY   44  33  65 CALM      30.31R
CANNON AFB     SUNNY     46  35  64 N8        30.30R
CLOVIS         SUNNY     46  32  57 N13       30.31R
HOLLOMAN AFB   SUNNY     49  33  53 S10       30.27R
ROSWELL        MOSUNNY   48  34  58 N12       30.32S
RUIDOSO          N/A     32  32 100 S6        30.32S WCI  26
SANTA FE       CLOUDY    39  30  70 SE8       30.30R WCI  33
TRUTH OR CONSE LGT RAIN  47  32  56 NE14      30.28R
TUCUMCARI      SUNNY     46  34  62 MISG      30.30S
$$




USA.gov is the U.S. government's official web portal to all federal, state and local government web resources and services.